Weather History for KPVJ - December, 2013

Change the Weather History Date:

Thursday, December 5, 2013

  Actual Average (KADH) Record (KADH)
Temperature  
Mean Temperature 26 °F -  
Max Temperature 32 °F 58 °F 78 °F (1956)
Min Temperature 21 °F 36 °F 11 °F (1910)
Degree Days  
Heating Degree Days 38    
Moisture  
Dew Point 18 °F    
Average Humidity 73    
Maximum Humidity 93    
Minimum Humidity 51    
Precipitation  
Precipitation 0.23 in - - ()
Sea Level Pressure  
Sea Level Pressure 30.17 in    
Wind  
Wind Speed 16 mph (North)    
Max Wind Speed 21 mph    
Max Gust Speed 32 mph    
Visibility 8 miles    
Events Snow , Thunderstorm    
Averages and records for this station are not official NWS values.
T = Trace of Precipitation, MM = Missing Value Source: NWS Daily Summary

Daily Weather History Graph

Daily Weather History Graph

Search for Another Location

Airport or City:

Trip Planner

Search our weather history database for the weather conditions in past years. The results will help you decide how hot, cold, wet, or windy it might be!

Date:

Astronomy

Dec. 05, 2013 Rise Set
Actual Time 7:21 AM CST 5:17 PM CST
Civil Twilight 6:53 AM CST 5:45 PM CST
Nautical Twilight 6:22 AM CST 6:16 PM CST
Astronomical Twilight 5:51 AM CST 6:47 PM CST
Moon 9:45 AM CST (12/5) 8:35 PM CST (12/5)
Length of Visible Light 10h 51m
Length of Day
9h 56m
Waxing Crescent, 11% of the Moon is Illuminated
Dec 5
Waxing Crescent
Dec 9
First Quarter
Dec 17
Full
Dec 25
Last Quarter
Jan 1
New

Hourly Weather History & Observations

Time (CST) Temp. Windchill Dew Point Humidity Pressure Visibility Wind Dir Wind Speed Gust Speed Precip Events Conditions
12:15 AM 32.0 °F 21.2 °F 21.2 °F 64% 30.04 in 10.0 mi North 16.1 mph 23.0 mph N/A   Unknown
12:35 AM 32.0 °F 20.5 °F 21.2 °F 64% 30.03 in 10.0 mi North 18.4 mph 25.3 mph N/A   Unknown
12:55 AM 32.0 °F 20.5 °F 19.4 °F 60% 30.03 in 10.0 mi North 18.4 mph 25.3 mph N/A   Unknown
1:15 AM 32.0 °F 20.1 °F 19.4 °F 60% 30.04 in 10.0 mi North 19.6 mph 25.3 mph N/A   Unknown
1:35 AM 32.0 °F 20.8 °F 17.6 °F 55% 30.06 in - North 17.3 mph 27.6 mph N/A   Unknown
1:55 AM 32.0 °F 19.8 °F 17.6 °F 55% 30.06 in - North 20.7 mph 29.9 mph N/A   Unknown
2:15 AM 32.0 °F 20.8 °F 17.6 °F 55% 30.07 in - North 17.3 mph 25.3 mph N/A   Unknown
2:35 AM 32.0 °F 20.5 °F 17.6 °F 55% 30.07 in - North 18.4 mph 24.2 mph N/A   Unknown
2:55 AM 30.2 °F 17.4 °F 17.6 °F 60% 30.08 in - North 20.7 mph 32.2 mph N/A   Unknown
3:15 AM 30.2 °F 18.9 °F 17.6 °F 60% 30.09 in - North 16.1 mph 27.6 mph N/A   Unknown
3:35 AM 30.2 °F 20.2 °F 17.6 °F 60% 30.12 in - North 12.7 mph 23.0 mph N/A   Unknown
3:55 AM 30.2 °F 18.1 °F 17.6 °F 60% 30.10 in - North 18.4 mph 25.3 mph N/A   Unknown
4:15 AM 30.2 °F 19.8 °F 21.2 °F 69% 30.11 in 7.0 mi North 13.8 mph 24.2 mph 0.01 in   Unknown
4:35 AM 30.2 °F 19.3 °F 19.4 °F 64% 30.12 in 10.0 mi North 15.0 mph 18.4 mph 0.01 in   Unknown
4:55 AM 28.4 °F 17.5 °F 19.4 °F 69% 30.11 in 10.0 mi North 13.8 mph 18.4 mph 0.01 in   Unknown
5:15 AM 28.4 °F 17.5 °F 17.6 °F 64% 30.12 in 10.0 mi North 13.8 mph - N/A   Unknown
5:35 AM 28.4 °F 17.0 °F 17.6 °F 64% 30.13 in 10.0 mi North 15.0 mph 24.2 mph N/A   Unknown
5:55 AM 28.4 °F 15.4 °F 14.0 °F 55% 30.14 in 10.0 mi North 19.6 mph 24.2 mph N/A   Unknown
6:15 AM 28.4 °F 15.4 °F 14.0 °F 55% 30.13 in 10.0 mi North 19.6 mph 26.5 mph N/A   Unknown
6:35 AM 28.4 °F 15.8 °F 12.2 °F 51% 30.14 in 10.0 mi North 18.4 mph 26.5 mph N/A   Unknown
6:55 AM 26.6 °F 13.8 °F 12.2 °F 55% 30.16 in 10.0 mi North 17.3 mph 24.2 mph N/A   Unknown
7:15 AM 26.6 °F 15.2 °F 14.0 °F 59% 30.18 in 10.0 mi North 13.8 mph 19.6 mph N/A   Unknown
7:35 AM 26.6 °F 15.2 °F 14.0 °F 59% 30.16 in 10.0 mi North 13.8 mph 25.3 mph N/A   Unknown
7:55 AM 26.6 °F 15.2 °F 14.0 °F 59% 30.17 in 10.0 mi North 13.8 mph 21.9 mph N/A   Unknown
8:15 AM 26.6 °F 15.2 °F 14.0 °F 59% 30.17 in 10.0 mi North 13.8 mph 17.3 mph N/A   Unknown
8:35 AM 26.6 °F 14.7 °F 12.2 °F 55% 30.20 in 10.0 mi North 15.0 mph 21.9 mph N/A   Unknown
8:55 AM 26.6 °F 15.2 °F 14.0 °F 59% 30.21 in 10.0 mi North 13.8 mph 20.7 mph N/A   Unknown
9:15 AM 26.6 °F 15.7 °F 14.0 °F 59% 30.20 in 10.0 mi North 12.7 mph - N/A   Unknown
9:35 AM 26.6 °F 15.7 °F 14.0 °F 59% 30.20 in 10.0 mi North 12.7 mph - N/A   Unknown
9:55 AM 26.6 °F 14.7 °F 14.0 °F 59% 30.23 in 10.0 mi North 15.0 mph 18.4 mph N/A   Unknown
10:15 AM 28.4 °F 17.0 °F 14.0 °F 55% 30.23 in 10.0 mi North 15.0 mph 21.9 mph N/A   Unknown
10:35 AM 28.4 °F 15.4 °F 12.2 °F 51% 30.23 in 10.0 mi NNE 19.6 mph 23.0 mph N/A   Unknown
10:55 AM 28.4 °F 19.1 °F 14.0 °F 55% 30.25 in 10.0 mi North 10.4 mph 18.4 mph N/A   Unknown
11:15 AM 26.6 °F 15.2 °F 15.8 °F 64% 30.24 in 10.0 mi North 13.8 mph 23.0 mph N/A   Unknown
11:35 AM 26.6 °F 15.2 °F 17.6 °F 69% 30.21 in 10.0 mi North 13.8 mph 18.4 mph N/A   Unknown
11:55 AM 26.6 °F 15.7 °F 17.6 °F 69% 30.19 in 10.0 mi North 12.7 mph 21.9 mph N/A   Unknown
12:15 PM 26.6 °F 13.8 °F 19.4 °F 74% 30.20 in 7.0 mi North 17.3 mph 21.9 mph N/A   Unknown
12:35 PM 24.8 °F 12.4 °F 17.6 °F 74% 30.23 in 10.0 mi North 15.0 mph - N/A   Unknown
12:55 PM 24.8 °F 11.9 °F 19.4 °F 80% 30.22 in 7.0 mi North 16.1 mph 20.7 mph N/A   Unknown
1:15 PM 24.8 °F 13.4 °F 19.4 °F 80% 30.20 in 10.0 mi North 12.7 mph - N/A   Unknown
1:35 PM 24.8 °F 12.9 °F 19.4 °F 80% 30.20 in 10.0 mi North 13.8 mph 21.9 mph N/A   Unknown
1:55 PM 24.8 °F 12.4 °F 19.4 °F 80% 30.17 in 7.0 mi North 15.0 mph 20.7 mph N/A   Unknown
2:15 PM 24.8 °F 12.4 °F 19.4 °F 80% 30.15 in 10.0 mi North 15.0 mph 20.7 mph 0.01 in   Unknown
2:35 PM 24.8 °F 12.4 °F 19.4 °F 80% 30.17 in 5.0 mi NNE 15.0 mph 20.7 mph 0.02 in   Unknown
2:55 PM 24.8 °F 14.6 °F 21.2 °F 86% 30.18 in 3.0 mi North 10.4 mph 18.4 mph 0.03 in   Unknown
3:15 PM 24.8 °F 14.6 °F 21.2 °F 86% 30.17 in 3.0 mi North 10.4 mph - 0.02 in Snow Light Snow
3:35 PM 23.0 °F 11.7 °F 21.2 °F 93% 30.16 in 5.0 mi NE 11.5 mph - 0.04 in Snow Light Snow
3:55 PM 23.0 °F 13.1 °F 19.4 °F 86% 30.18 in 4.0 mi North 9.2 mph 17.3 mph 0.05 in Snow Light Snow
4:15 PM 23.0 °F 10.6 °F 19.4 °F 86% 30.16 in 3.0 mi NNE 13.8 mph - 0.03 in Snow , Thunderstorm Light Thunderstorms and Snow
4:35 PM 23.0 °F 11.1 °F 21.2 °F 93% 30.19 in 2.5 mi North 12.7 mph - 0.08 in Snow Light Snow
4:55 PM 23.0 °F 11.1 °F 19.4 °F 86% 30.19 in 3.0 mi NNE 12.7 mph 19.6 mph 0.13 in Snow Light Snow
5:15 PM 23.0 °F 12.4 °F 21.2 °F 93% 30.18 in 5.0 mi North 10.4 mph - 0.01 in Snow Light Snow
5:35 PM 23.0 °F 10.6 °F 21.2 °F 93% 30.19 in 7.0 mi North 13.8 mph 23.0 mph 0.01 in   Unknown
5:55 PM 23.0 °F 11.1 °F 21.2 °F 93% 30.20 in 10.0 mi North 12.7 mph 17.3 mph 0.01 in   Unknown
6:15 PM 23.0 °F 11.7 °F 21.2 °F 93% 30.20 in 7.0 mi North 11.5 mph - N/A Snow Light Snow
6:35 PM 23.0 °F 12.4 °F 19.4 °F 86% 30.21 in 10.0 mi North 10.4 mph 19.6 mph N/A   Unknown
6:55 PM 23.0 °F 11.7 °F 19.4 °F 86% 30.22 in 10.0 mi North 11.5 mph 19.6 mph N/A Snow Light Snow
7:15 PM 23.0 °F 9.6 °F 19.4 °F 86% 30.19 in 10.0 mi North 16.1 mph 23.0 mph N/A   Unknown
7:35 PM 23.0 °F 10.6 °F 19.4 °F 86% 30.21 in 10.0 mi North 13.8 mph - N/A   Unknown
7:55 PM 23.0 °F 10.6 °F 19.4 °F 86% 30.21 in 10.0 mi North 13.8 mph 18.4 mph N/A   Unknown
8:15 PM 23.0 °F 11.1 °F 19.4 °F 86% 30.22 in 10.0 mi North 12.7 mph - N/A   Unknown
8:35 PM 23.0 °F 13.1 °F 19.4 °F 86% 30.22 in 10.0 mi North 9.2 mph - N/A   Unknown
8:55 PM 23.0 °F 9.6 °F 19.4 °F 86% 30.20 in 10.0 mi North 16.1 mph 21.9 mph N/A   Unknown
9:15 PM 23.0 °F 10.6 °F 19.4 °F 86% 30.22 in 10.0 mi North 13.8 mph - N/A   Unknown
9:35 PM 23.0 °F 10.1 °F 19.4 °F 86% 30.25 in 10.0 mi North 15.0 mph 20.7 mph N/A   Unknown
9:55 PM 23.0 °F 11.7 °F 19.4 °F 86% 30.25 in 10.0 mi North 11.5 mph - N/A   Unknown
10:15 PM 23.0 °F 9.2 °F 19.4 °F 86% 30.23 in 10.0 mi North 17.3 mph 23.0 mph N/A   Unknown
10:35 PM 21.2 °F 8.3 °F 17.6 °F 86% 30.25 in 5.0 mi North 13.8 mph 23.0 mph N/A   Mist
10:55 PM 21.2 °F 8.3 °F 17.6 °F 86% 30.23 in 7.0 mi NNE 13.8 mph 21.9 mph N/A   Unknown
11:15 PM 21.2 °F 8.3 °F 19.4 °F 93% 30.25 in 7.0 mi North 13.8 mph - N/A   Unknown
11:35 PM 21.2 °F 9.5 °F 19.4 °F 93% 30.25 in 7.0 mi North 11.5 mph - N/A   Unknown
11:55 PM 21.2 °F 8.9 °F 19.4 °F 93% 30.25 in 5.0 mi North 12.7 mph 19.6 mph N/A   Mist